GW6505 Weather Reports


Display with metric or nautical units.
time (UTC)temp
F
wind
direction
speed
MPH
gust
MPH
rain 1hr
in
rain 24hr
in
rain mn
in
humidity
%
barometer
mb
20260504184545 72 38 2.0 15.0 0.00 0.00 0.00 27 1017.5
20260504183543 71 227 3.0 8.0 0.00 0.00 0.00 29 1017.4
20260504182538 71 187 2.0 8.0 0.00 0.00 0.00 30 1017.8
20260504181538 70 188 5.0 6.0 0.00 0.00 0.00 30 1017.7
20260504180535 71 264 2.0 9.0 0.00 0.00 0.00 33 1018.0
20260504175530 71 10 2.0 10.0 0.00 0.00 0.00 30 1018.3
20260504174525 69 347 2.0 7.0 0.00 0.00 0.00 30 1018.1
20260504173524 68 94 3.0 16.0 0.00 0.00 0.00 32 1018.2
20260504172524 68 17 2.0 8.0 0.00 0.00 0.00 29 1018.4
20260504171523 68 234 4.0 8.0 0.00 0.00 0.00 32 1018.7
20260504170521 68 57 3.0 10.0 0.00 0.00 0.00 32 1018.9
20260504150501 65 242 4.0 9.0 0.00 0.00 0.00 33 1019.9
20260504140452 62 341 4.0 10.0 0.00 0.00 0.00 35 1020.7
20260504130435 57 9 2.0 8.0 0.00 0.00 0.00 44 1021.2
20260504110409 45 239 1.0 2.0 0.00 0.00 0.00 60 1021.4
20260504100354 42 75 0.0 0.0 0.00 0.00 0.00 66 1021.3
20260504081337 42 74 0.0 0.0 0.00 0.00 0.00 64 1021.2
20260504080336 42 74 0.0 0.0 0.00 0.00 0.00 63 1021.3
20260504070332 43 80 0.0 0.0 0.00 0.00 0.00 62 1020.8
20260504050311 43 63 0.0 0.0 0.00 0.00 0.00 59 1020.5
20260504045308 43 63 0.0 0.0 0.00 0.00 0.00 59 1020.6
20260504044303 42 63 0.0 0.0 0.00 0.00 0.00 61 1020.8
20260504043303 41 63 0.0 0.0 0.00 0.00 0.00 66 1020.6
20260504042304 42 63 0.0 0.0 0.00 0.00 0.00 65 1020.5
20260504041300 42 62 1.0 1.0 0.00 0.00 0.00 60 1020.5
20260504040300 43 62 0.0 0.0 0.00 0.00 0.00 59 1020.6
20260504035259 43 62 1.0 1.0 0.00 0.00 0.00 61 1020.5
20260504034254 44 62 0.0 0.0 0.00 0.00 0.00 58 1020.4
20260504033249 44 62 0.0 0.0 0.00 0.00 0.00 55 1020.4
20260504032248 44 62 0.0 0.0 0.00 0.00 0.00 57 1020.4
20260504031249 44 62 0.0 0.0 0.00 0.00 0.00 55 1020.4
20260504030248 46 62 0.0 0.0 0.00 0.00 0.00 56 1020.3
20260504025247 46 62 0.0 0.0 0.00 0.00 0.00 52 1020.1
20260504024246 47 62 0.0 0.0 0.00 0.00 0.00 50 1020.3
20260504023245 48 62 0.0 0.0 0.00 0.00 0.00 48 1020.3
20260504022243 47 62 0.0 0.0 0.00 0.00 0.00 49 1020.1
20260504021244 47 62 0.0 0.0 0.00 0.00 0.00 50 1020.1
20260504020243 47 62 0.0 0.0 0.00 0.00 0.00 51 1020.3
20260504015241 48 62 0.0 0.0 0.00 0.00 0.00 50 1020.1
20260504014240 48 61 0.0 0.0 0.00 0.00 0.00 48 1020.1
20260504013235 49 61 0.0 0.0 0.00 0.00 0.00 46 1020.1
20260504012235 50 59 0.0 0.0 0.00 0.00 0.00 44 1020.0
20260504011234 51 59 0.0 0.0 0.00 0.00 0.00 43 1020.2
20260504010232 51 58 0.0 0.0 0.00 0.00 0.00 43 1020.2
20260504005232 52 60 0.0 1.0 0.00 0.00 0.00 44 1020.0
20260504004232 52 60 0.0 2.0 0.00 0.00 0.00 42 1020.0
20260504003232 52 23 2.0 3.0 0.00 0.00 0.00 41 1019.7
20260504002231 53 54 0.0 0.0 0.00 0.00 0.00 41 1019.8
20260504001231 53 53 0.0 0.0 0.00 0.00 0.00 38 1019.4
20260504000231 54 49 1.0 2.0 0.00 0.00 0.00 39 1019.3
20260503235226 54 50 2.0 3.0 0.00 0.00 0.00 37 1019.3
20260503234222 55 52 0.0 2.0 0.00 0.00 0.00 40 1019.3
20260503233219 55 58 0.0 1.0 0.00 0.00 0.00 37 1019.2
20260503232219 56 55 1.0 1.0 0.00 0.00 0.00 36 1019.0
20260503231214 56 346 3.0 3.0 0.00 0.00 0.00 33 1019.1
20260503230214 56 279 3.0 8.0 0.00 0.00 0.00 32 1018.8
20260503225211 56 341 2.0 3.0 0.00 0.00 0.00 32 1018.7
20260503224206 56 30 2.0 6.0 0.00 0.00 0.00 32 1018.8
20260503223201 57 333 3.0 6.0 0.00 0.00 0.00 29 1018.6
20260503222155 57 34 3.0 6.0 0.00 0.00 0.00 29 1018.5
20260503221150 57 352 3.0 4.0 0.00 0.00 0.00 30 1018.4
20260503220149 57 353 3.0 6.0 0.00 0.00 0.00 27 1018.4
20260503215149 56 56 5.0 9.0 0.00 0.00 0.00 27 1018.2
20260503214149 57 26 3.0 8.0 0.00 0.00 0.00 26 1018.4
20260503213145 58 36 4.0 9.0 0.00 0.00 0.00 25 1018.6
20260503212140 59 269 5.0 9.0 0.00 0.00 0.00 24 1018.0
20260503211138 59 240 3.0 7.0 0.00 0.00 0.00 24 1018.2
20260503210138 59 30 4.0 6.0 0.00 0.00 0.00 26 1018.4
20260503205135 58 328 8.0 10.0 0.00 0.00 0.00 24 1018.3
20260503204135 57 266 4.0 7.0 0.00 0.00 0.00 27 1018.2
20260503203135 59 343 4.0 6.0 0.00 0.00 0.00 28 1018.2
20260503202130 58 325 7.0 10.0 0.00 0.00 0.00 25 1018.5
20260503201125 59 327 8.0 9.0 0.00 0.00 0.00 27 1018.4
20260503200124 59 274 4.0 7.0 0.00 0.00 0.00 30 1018.4
20260503195123 58 261 4.0 7.0 0.00 0.00 0.00 30 1018.7
20260503194121 57 298 2.0 8.0 0.00 0.00 0.00 30 1018.7
20260503193120 57 327 6.0 10.0 0.00 0.00 0.00 27 1019.1
20260503192117 57 326 6.0 9.0 0.00 0.00 0.00 30 1018.8
20260503191117 55 356 3.0 8.0 0.00 0.00 0.00 29 1019.1
20260503190117 54 58 2.0 9.0 0.00 0.00 0.00 31 1019.3